Location: Arbon
(43.0005°N, 0.7472°E)
Time: 21:36:59
(UTC+00:00)

Tiangong - Pass Details

Date: 01 October 2021
Orbit: 382 x 385 km, 41.5° (Epoch: 16 October)

Event Time Altitude Azimuth Distance (km) Brightness Sun altitude
Exits shadow 05:22:25 - 267° (W) 1,484 3.3 -6.7°
Reaches altitude 10° 05:22:38 10° 266° (W) 1,399 3.2 -6.6°
Maximum altitude 05:25:45 65° 185° (S) 423 1.2 -6.1°
Drops below altitude 10° 05:28:53 10° 102° (ESE) 1,396 5.6 -5.5°
Sets 05:30:57 0° 99° (E) 2,248 7.2 -5.1°
